Location: Brachstadt
(48.6975°N, 10.6755°E)
Time: 06:14:18
(UTC+00:00)

NOSS 3-2 (A) - Pass Details

Date: 18 September 2020
Orbit: 795 x 1413 km, 63.4° (Epoch: 25 October)

Event Time Altitude Azimuth Distance (km) Brightness Sun altitude
Rises 18:09:32 0° 316° (NW) 3,857 7.6 -8.4°
Reaches altitude 10° 18:12:07 10° 322° (NW) 2,986 6.9 -8.9°
Maximum altitude 18:19:14 55° 39° (NE) 1,456 4.3 -10.0°
Enters shadow 18:26:33 13° 115° (ESE) 3,139 5.5 -11.2°
